Volver al catálogo

STARLINK-5965

ActivoComunicacionesVLEO
NORAD 56915·PAYLOAD·🇺🇸 United States

Lanzado Jun 12, 2023 desde Cape Canaveral Space Force Station

Loading…

Próximos Pases (próximas 24 horas)

TLE

ActualizadoSource: CelesTrak SupGP

Época: Sep 14, 2026, 13:25 UTC

1 56915C 23083AR  26257.55951389  .00003790  00000+0  13728-3 0  2578
2 56915  43.0010  84.0054 0001207 255.4413 109.6237 15.27576030    16

Sigue STARLINK-5965 en tiempo real con AllMySat

Download on the App Store